| time (UTC) | temp F | wind direction | speed MPH | gust MPH | rain 1hr in | rain 24hr in | rain mn in | humidity % | barometer mb |
| 20260905171333 | 64 | 64 | 4.0 | 0.0 | 0.00 | 0.00 | 0.00 | 55 | 1020.1 |
| 20260905170402 | 64 | 71 | 2.0 | 0.0 | 0.00 | 0.00 | 0.00 | 56 | 1020.0 |
| 20260905165325 | 64 | 18 | 2.0 | 0.0 | 0.00 | 0.00 | 0.00 | 56 | 1020.1 |
| 20260905164329 | 63 | 13 | 3.0 | 0.0 | 0.00 | 0.00 | 0.00 | 56 | 1020.2 |
| 20260905163336 | 63 | 338 | 4.0 | 0.0 | 0.00 | 0.00 | 0.00 | 57 | 1020.2 |
| 20260905162342 | 63 | 288 | 2.0 | 0.0 | 0.00 | 0.00 | 0.00 | 58 | 1020.1 |
| 20260905161326 | 62 | 75 | 3.0 | 0.0 | 0.00 | 0.00 | 0.00 | 60 | 1020.5 |
| 20260905160329 | 61 | 81 | 2.0 | 0.0 | 0.00 | 0.00 | 0.00 | 60 | 1020.5 |
| 20260905155336 | 61 | 107 | 4.0 | 0.0 | 0.00 | 0.00 | 0.00 | 62 | 1020.0 |
| 20260905154403 | 60 | 100 | 3.0 | 0.0 | 0.00 | 0.00 | 0.00 | 62 | 1020.2 |
| 20260905153344 | 60 | 90 | 3.0 | 0.0 | 0.00 | 0.00 | 0.00 | 63 | 1020.3 |
| 20260905152348 | 60 | 86 | 2.0 | 0.0 | 0.00 | 0.00 | 0.00 | 62 | 1020.3 |
| 20260905151329 | 59 | 123 | 2.0 | 0.0 | 0.00 | 0.00 | 0.00 | 65 | 1020.3 |
| 20260905150336 | 58 | 96 | 1.0 | 0.0 | 0.00 | 0.00 | 0.00 | 71 | 1020.4 |
| 20260905145341 | 57 | 61 | 2.0 | 0.0 | 0.00 | 0.00 | 0.00 | 72 | 1020.1 |
| 20260905144344 | 56 | 30 | 1.0 | 0.0 | 0.00 | 0.00 | 0.00 | 75 | 1020.0 |
| 20260905143326 | 55 | 65 | 1.0 | 0.0 | 0.00 | 0.00 | 0.00 | 77 | 1020.1 |
| 20260905142329 | 53 | 343 | 1.0 | 0.0 | 0.00 | 0.00 | 0.00 | 79 | 1020.6 |
| 20260905141337 | 52 | 354 | 1.0 | 0.0 | 0.00 | 0.00 | 0.00 | 79 | 1019.6 |
| 20260905140341 | 52 | 192 | 2.0 | 0.0 | 0.00 | 0.00 | 0.00 | 80 | 1019.6 |
| 20260905135325 | 50 | 201 | 5.0 | 0.0 | 0.00 | 0.00 | 0.00 | 80 | 1019.8 |
| 20260905134328 | 50 | 192 | 4.0 | 0.0 | 0.00 | 0.00 | 0.00 | 80 | 1019.6 |
| 20260905133335 | 50 | 190 | 5.0 | 0.0 | 0.00 | 0.00 | 0.00 | 79 | 1019.5 |
| 20260905132342 | 50 | 196 | 4.0 | 0.0 | 0.00 | 0.00 | 0.00 | 79 | 1019.4 |
| 20260905131326 | 50 | 200 | 4.0 | 0.0 | 0.00 | 0.00 | 0.00 | 78 | 1019.3 |
| 20260905130330 | 50 | 186 | 3.0 | 0.0 | 0.00 | 0.00 | 0.00 | 78 | 1017.9 |
| 20260905125340 | 50 | 152 | 3.0 | 0.0 | 0.00 | 0.00 | 0.00 | 77 | 1019.0 |
| 20260905124346 | 50 | 203 | 3.0 | 0.0 | 0.00 | 0.00 | 0.00 | 76 | 1018.9 |
| 20260905123340 | 51 | 238 | 4.0 | 0.0 | 0.00 | 0.00 | 0.00 | 75 | 1018.5 |
| 20260905122344 | 52 | 149 | 5.0 | 0.0 | 0.00 | 0.00 | 0.00 | 74 | 1018.2 |
| 20260905121331 | 52 | 181 | 6.0 | 0.0 | 0.00 | 0.00 | 0.00 | 72 | 1018.3 |
| 20260905120335 | 53 | 200 | 4.0 | 0.0 | 0.00 | 0.00 | 0.00 | 70 | 1018.7 |
| 20260905115332 | 55 | 181 | 5.0 | 0.0 | 0.00 | 0.00 | 0.00 | 68 | 1017.8 |
| 20260905114336 | 55 | 199 | 3.0 | 0.0 | 0.00 | 0.00 | 0.00 | 68 | 1017.8 |
| 20260905113340 | 56 | 273 | 7.0 | 0.0 | 0.00 | 0.00 | 0.00 | 67 | 1017.8 |
| 20260905112326 | 56 | 226 | 9.0 | 0.0 | 0.00 | 0.00 | 0.00 | 68 | 1017.4 |
| 20260905111350 | 56 | 217 | 6.0 | 0.0 | 0.00 | 0.00 | 0.00 | 67 | 1017.4 |
| 20260905110332 | 57 | 213 | 8.0 | 0.0 | 0.00 | 0.00 | 0.00 | 66 | 1017.7 |
| 20260905105335 | 57 | 210 | 8.0 | 0.0 | 0.00 | 0.00 | 0.00 | 66 | 1018.0 |
| 20260905104338 | 57 | 203 | 4.0 | 0.0 | 0.00 | 0.00 | 0.00 | 66 | 1018.2 |
| 20260905103325 | 57 | 202 | 2.0 | 0.0 | 0.00 | 0.00 | 0.00 | 65 | 1017.8 |
| 20260905102329 | 58 | 203 | 5.0 | 0.0 | 0.00 | 0.00 | 0.00 | 65 | 1017.6 |
| 20260905101332 | 58 | 17 | 3.0 | 0.0 | 0.00 | 0.00 | 0.00 | 65 | 1017.5 |
| 20260905100334 | 58 | 17 | 6.0 | 0.0 | 0.00 | 0.00 | 0.00 | 64 | 1017.7 |
| 20260905095325 | 58 | 1 | 10.0 | 0.0 | 0.00 | 0.00 | 0.00 | 64 | 1016.6 |
| 20260905094327 | 58 | 333 | 10.0 | 0.0 | 0.00 | 0.00 | 0.00 | 63 | 1017.2 |
| 20260905093353 | 58 | 297 | 14.0 | 0.0 | 0.00 | 0.00 | 0.00 | 64 | 1017.0 |
| 20260905092335 | 58 | 246 | 16.0 | 0.0 | 0.00 | 0.00 | 0.00 | 65 | 1015.9 |
| 20260905091343 | 58 | 232 | 12.0 | 0.0 | 0.00 | 0.00 | 0.00 | 65 | 1016.3 |
| 20260905090346 | 58 | 197 | 12.0 | 0.0 | 0.00 | 0.00 | 0.00 | 65 | 1017.4 |
| 20260905085326 | 59 | 194 | 14.0 | 0.0 | 0.00 | 0.00 | 0.00 | 64 | 1017.7 |
| 20260905084333 | 59 | 195 | 15.0 | 0.0 | 0.00 | 0.00 | 0.00 | 63 | 1016.6 |
| 20260905083356 | 59 | 195 | 18.0 | 0.0 | 0.00 | 0.00 | 0.00 | 64 | 1016.1 |
| 20260905082342 | 59 | 200 | 18.0 | 0.0 | 0.00 | 0.00 | 0.00 | 64 | 1016.1 |
| 20260905081345 | 59 | 194 | 17.0 | 0.0 | 0.00 | 0.00 | 0.00 | 65 | 1016.5 |
| 20260905080348 | 59 | 197 | 21.0 | 0.0 | 0.00 | 0.00 | 0.00 | 66 | 1015.8 |
| 20260905075334 | 59 | 9 | 20.0 | 0.0 | 0.00 | 0.00 | 0.00 | 66 | 1015.0 |
| 20260905074325 | 59 | 1 | 19.0 | 0.0 | 0.00 | 0.00 | 0.00 | 66 | 1015.1 |
| 20260905073331 | 59 | 353 | 16.0 | 0.0 | 0.00 | 0.00 | 0.00 | 66 | 1015.9 |
| 20260905072355 | 59 | 353 | 18.0 | 0.0 | 0.00 | 0.00 | 0.00 | 65 | 1014.9 |
| 20260905071341 | 60 | 322 | 18.0 | 0.0 | 0.00 | 0.00 | 0.00 | 64 | 1015.1 |
| 20260905070405 | 60 | 209 | 21.0 | 0.0 | 0.00 | 0.00 | 0.00 | 62 | 1014.9 |
| 20260905065331 | 61 | 24 | 20.0 | 0.0 | 0.00 | 0.00 | 0.00 | 59 | 1013.8 |
| 20260905064334 | 62 | 7 | 21.0 | 0.0 | 0.00 | 0.00 | 0.00 | 58 | 1013.9 |
| 20260905063341 | 63 | 9 | 22.0 | 0.0 | 0.00 | 0.00 | 0.00 | 57 | 1014.6 |
| 20260905062347 | 63 | 13 | 17.0 | 0.0 | 0.00 | 0.00 | 0.00 | 56 | 1014.6 |
| 20260905061333 | 63 | 20 | 16.0 | 0.0 | 0.00 | 0.00 | 0.00 | 55 | 1014.7 |
| 20260905060336 | 64 | 353 | 16.0 | 0.0 | 0.00 | 0.00 | 0.00 | 53 | 1014.4 |
| 20260905055340 | 64 | 26 | 14.0 | 0.0 | 0.00 | 0.00 | 0.00 | 53 | 1014.5 |
| 20260905054346 | 64 | 10 | 14.0 | 0.0 | 0.00 | 0.00 | 0.00 | 52 | 1014.4 |
| 20260905053328 | 65 | 21 | 12.0 | 0.0 | 0.00 | 0.00 | 0.00 | 51 | 1014.4 |
| 20260905052335 | 66 | 21 | 15.0 | 0.0 | 0.00 | 0.00 | 0.00 | 50 | 1014.1 |
| 20260905051338 | 66 | 17 | 13.0 | 0.0 | 0.00 | 0.00 | 0.00 | 49 | 1014.1 |
| 20260905050324 | 65 | 57 | 4.0 | 0.0 | 0.00 | 0.00 | 0.00 | 50 | 1014.5 |
| 20260905045330 | 63 | 127 | 2.0 | 0.0 | 0.00 | 0.00 | 0.00 | 50 | 1014.4 |
| 20260905044338 | 63 | 228 | 3.0 | 0.0 | 0.00 | 0.00 | 0.00 | 49 | 1014.5 |
| 20260905043344 | 65 | 181 | 2.0 | 0.0 | 0.00 | 0.00 | 0.00 | 46 | 1014.2 |
| 20260905042326 | 66 | 99 | 3.0 | 0.0 | 0.00 | 0.00 | 0.00 | 45 | 1014.7 |
| 20260905041330 | 63 | 340 | 6.0 | 0.0 | 0.00 | 0.00 | 0.00 | 49 | 1014.3 |
| 20260905040341 | 63 | 290 | 11.0 | 0.0 | 0.00 | 0.00 | 0.00 | 50 | 1014.4 |
| 20260905035344 | 64 | 284 | 11.0 | 0.0 | 0.00 | 0.00 | 0.00 | 48 | 1014.8 |
| 20260905034347 | 63 | 283 | 6.0 | 0.0 | 0.00 | 0.00 | 0.00 | 46 | 1014.0 |
| 20260905033349 | 63 | 282 | 7.0 | 0.0 | 0.00 | 0.00 | 0.00 | 44 | 1013.9 |
| 20260905032332 | 63 | 264 | 5.0 | 0.0 | 0.00 | 0.00 | 0.00 | 42 | 1014.0 |
| 20260905031359 | 65 | 297 | 6.0 | 0.0 | 0.00 | 0.00 | 0.00 | 40 | 1014.4 |
| 20260905030340 | 66 | 224 | 7.0 | 0.0 | 0.00 | 0.00 | 0.00 | 39 | 1014.0 |
| 20260905025342 | 67 | 215 | 7.0 | 0.0 | 0.00 | 0.00 | 0.00 | 37 | 1014.0 |
| 20260905024344 | 70 | 202 | 9.0 | 0.0 | 0.00 | 0.00 | 0.00 | 34 | 1014.2 |
| 20260905023347 | 70 | 219 | 10.0 | 0.0 | 0.00 | 0.00 | 0.00 | 34 | 1014.0 |
| 20260905022353 | 70 | 228 | 11.0 | 0.0 | 0.00 | 0.00 | 0.00 | 33 | 1013.9 |
| 20260905021336 | 71 | 230 | 11.0 | 0.0 | 0.00 | 0.00 | 0.00 | 33 | 1013.8 |
| 20260905020338 | 72 | 227 | 11.0 | 0.0 | 0.00 | 0.00 | 0.00 | 31 | 1013.4 |
| 20260905015402 | 74 | 223 | 11.0 | 0.0 | 0.00 | 0.00 | 0.00 | 30 | 1013.0 |
| 20260905014327 | 75 | 221 | 11.0 | 0.0 | 0.00 | 0.00 | 0.00 | 29 | 1013.5 |
| 20260905013355 | 76 | 219 | 13.0 | 0.0 | 0.00 | 0.00 | 0.00 | 28 | 1013.3 |
| 20260905012336 | 77 | 236 | 13.0 | 0.0 | 0.00 | 0.00 | 0.00 | 27 | 1013.0 |
| 20260905011340 | 78 | 213 | 15.0 | 0.0 | 0.00 | 0.00 | 0.00 | 26 | 1013.0 |
| 20260905010325 | 79 | 211 | 15.0 | 0.0 | 0.00 | 0.00 | 0.00 | 26 | 1012.5 |
| 20260905005351 | 80 | 204 | 16.0 | 0.0 | 0.00 | 0.00 | 0.00 | 25 | 1012.7 |
| 20260905004337 | 80 | 224 | 17.0 | 0.0 | 0.00 | 0.00 | 0.00 | 24 | 1012.6 |
| 20260905003340 | 81 | 205 | 16.0 | 0.0 | 0.00 | 0.00 | 0.00 | 25 | 1012.5 |
| 20260905002326 | 81 | 222 | 20.0 | 0.0 | 0.00 | 0.00 | 0.00 | 25 | 1012.4 |
| 20260905001329 | 81 | 215 | 19.0 | 0.0 | 0.00 | 0.00 | 0.00 | 24 | 1012.3 |
| 20260905000336 | 81 | 217 | 18.0 | 0.0 | 0.00 | 0.00 | 0.00 | 24 | 1012.3 |
| 20260904235338 | 82 | 234 | 17.0 | 0.0 | 0.00 | 0.00 | 0.00 | 24 | 1012.4 |
| 20260904234325 | 81 | 186 | 17.0 | 0.0 | 0.00 | 0.00 | 0.00 | 25 | 1011.8 |
| 20260904233328 | 82 | 192 | 17.0 | 0.0 | 0.00 | 0.00 | 0.00 | 25 | 1012.4 |
| 20260904232334 | 82 | 201 | 20.0 | 0.0 | 0.00 | 0.00 | 0.00 | 25 | 1012.6 |
| 20260904231327 | 82 | 206 | 19.0 | 0.0 | 0.00 | 0.00 | 0.00 | 26 | 1012.5 |
| 20260904230330 | 82 | 225 | 14.0 | 0.0 | 0.00 | 0.00 | 0.00 | 26 | 1012.7 |
| 20260904225334 | 80 | 198 | 6.0 | 0.0 | 0.00 | 0.00 | 0.00 | 30 | 1011.9 |
| 20260904224338 | 79 | 117 | 5.0 | 0.0 | 0.00 | 0.00 | 0.00 | 31 | 1012.0 |
| 20260904223344 | 79 | 176 | 7.0 | 0.0 | 0.00 | 0.00 | 0.00 | 31 | 1012.0 |
| 20260904222327 | 79 | 125 | 7.0 | 0.0 | 0.00 | 0.00 | 0.00 | 31 | 1011.9 |
| 20260904221331 | 79 | 165 | 7.0 | 0.0 | 0.00 | 0.00 | 0.00 | 31 | 1012.0 |
| 20260904220337 | 78 | 181 | 5.0 | 0.0 | 0.00 | 0.00 | 0.00 | 32 | 1011.9 |
| 20260904215328 | 78 | 120 | 4.0 | 0.0 | 0.00 | 0.00 | 0.00 | 30 | 1011.6 |
| 20260904214331 | 78 | 113 | 7.0 | 0.0 | 0.00 | 0.00 | 0.00 | 30 | 1011.6 |
| 20260904213333 | 78 | 92 | 5.0 | 0.0 | 0.00 | 0.00 | 0.00 | 30 | 1011.4 |
| 20260904212339 | 79 | 121 | 4.0 | 0.0 | 0.00 | 0.00 | 0.00 | 29 | 1011.5 |
| 20260904211327 | 80 | 123 | 2.0 | 0.0 | 0.00 | 0.00 | 0.00 | 28 | 1012.0 |
| 20260904210331 | 79 | 252 | 2.0 | 0.0 | 0.00 | 0.00 | 0.00 | 29 | 1011.5 |
| 20260904205335 | 78 | 85 | 2.0 | 0.0 | 0.00 | 0.00 | 0.00 | 30 | 1012.1 |
| 20260904204339 | 78 | 55 | 5.0 | 0.0 | 0.00 | 0.00 | 0.00 | 30 | 1012.1 |
| 20260904203327 | 79 | 305 | 7.0 | 0.0 | 0.00 | 0.00 | 0.00 | 30 | 1011.7 |
| 20260904202328 | 79 | 302 | 8.0 | 0.0 | 0.00 | 0.00 | 0.00 | 30 | 1011.7 |
| 20260904201330 | 79 | 348 | 7.0 | 0.0 | 0.00 | 0.00 | 0.00 | 31 | 1012.0 |
| 20260904200333 | 78 | 327 | 7.0 | 0.0 | 0.00 | 0.00 | 0.00 | 30 | 1012.0 |
| 20260904195320 | 78 | 329 | 11.0 | 0.0 | 0.00 | 0.00 | 0.00 | 30 | 1011.8 |
| 20260904194330 | 78 | 287 | 9.0 | 0.0 | 0.00 | 0.00 | 0.00 | 31 | 1011.7 |
| 20260904193336 | 77 | 331 | 11.0 | 0.0 | 0.00 | 0.00 | 0.00 | 31 | 1012.2 |
| 20260904192342 | 76 | 300 | 11.0 | 0.0 | 0.00 | 0.00 | 0.00 | 34 | 1012.0 |
| 20260904191330 | 76 | 327 | 10.0 | 0.0 | 0.00 | 0.00 | 0.00 | 33 | 1012.0 |
| 20260904190334 | 75 | 317 | 10.0 | 0.0 | 0.00 | 0.00 | 0.00 | 33 | 1011.5 |
| 20260904185337 | 77 | 348 | 9.0 | 0.0 | 0.00 | 0.00 | 0.00 | 32 | 1012.1 |
| 20260904184323 | 76 | 23 | 10.0 | 0.0 | 0.00 | 0.00 | 0.00 | 34 | 1012.3 |
| 20260904183333 | 75 | 322 | 9.0 | 0.0 | 0.00 | 0.00 | 0.00 | 33 | 1011.6 |
| 20260904182337 | 75 | 317 | 11.0 | 0.0 | 0.00 | 0.00 | 0.00 | 34 | 1011.5 |
| 20260904181400 | 75 | 329 | 12.0 | 0.0 | 0.00 | 0.00 | 0.00 | 33 | 1011.7 |
| 20260904180341 | 74 | 329 | 13.0 | 0.0 | 0.00 | 0.00 | 0.00 | 33 | 1011.8 |
| 20260904175323 | 74 | 336 | 12.0 | 0.0 | 0.00 | 0.00 | 0.00 | 36 | 1012.2 |
| 20260904174353 | 73 | 347 | 12.0 | 0.0 | 0.00 | 0.00 | 0.00 | 35 | 1012.2 |
| 20260904173336 | 73 | 331 | 13.0 | 0.0 | 0.00 | 0.00 | 0.00 | 36 | 1012.2 |
| 20260904172343 | 73 | 344 | 11.0 | 0.0 | 0.00 | 0.00 | 0.00 | 39 | 1012.1 |